TimeAKST,TemperatureF,Dew PointF,Humidity,Sea Level PressureIn,VisibilityMPH,Wind Direction,Wind SpeedMPH,Gust SpeedMPH,PrecipitationIn,Events,Conditions,WindDirDegrees,DateUTC
12:00 AM,42.8,41.0,93,30.20,3.0,SSE,8.1,-,0.00,Rain,Light Rain,150,2013-02-01 09:00:00
12:25 AM,42.8,41.0,93,30.20,6.0,SE,8.1,-,0.02,Rain,Light Rain,140,2013-02-01 09:25:00
12:53 AM,42.1,41.0,96,30.21,5.0,SSE,8.1,-,0.03,Rain,Light Rain,150,2013-02-01 09:53:00
1:12 AM,42.8,42.8,100,30.21,2.5,SE,8.1,-,0.01,Rain,Light Rain,140,2013-02-01 10:12:00
1:33 AM,42.8,42.8,100,30.22,3.0,SSE,8.1,-,0.02,Rain,Light Rain,150,2013-02-01 10:33:00
1:35 AM,42.8,42.8,100,30.22,2.5,SE,9.2,-,0.02,Rain,Light Rain,140,2013-02-01 10:35:00
1:53 AM,43.0,42.1,97,30.22,2.5,SE,11.5,-,0.03,Rain,Light Rain,140,2013-02-01 10:53:00
2:14 AM,42.8,42.8,100,30.21,3.0,SE,9.2,-,0.00,Rain,Light Rain,140,2013-02-01 11:14:00
2:26 AM,42.8,42.8,100,30.21,2.5,SE,10.4,-,0.01,Rain,Light Rain,140,2013-02-01 11:26:00
3:02 AM,42.8,42.8,100,30.20,1.8,SE,10.4,-,0.00,Rain,Light Rain,140,2013-02-01 12:02:00
3:10 AM,42.8,42.8,100,30.20,2.0,SE,12.7,-,0.01,Rain,Light Rain,140,2013-02-01 12:10:00
3:53 AM,43.0,42.1,97,30.20,2.5,SE,13.8,-,0.02,Rain,Light Rain,140,2013-02-01 12:53:00
4:03 AM,42.8,42.8,100,30.20,2.5,ESE,13.8,-,0.01,Rain,Light Rain,120,2013-02-01 13:03:00
4:12 AM,42.8,42.8,100,30.20,3.0,SE,13.8,-,0.02,Rain,Light Rain,130,2013-02-01 13:12:00
4:29 AM,42.8,42.8,100,30.20,2.0,SE,15.0,-,0.04,Rain,Light Rain,130,2013-02-01 13:29:00
4:40 AM,42.8,42.8,100,30.20,3.0,SE,11.5,-,0.05,Rain,Light Rain,140,2013-02-01 13:40:00
4:53 AM,43.0,42.1,97,30.21,5.0,SSE,9.2,-,0.05,Rain,Light Rain,150,2013-02-01 13:53:00
5:30 AM,42.8,42.8,100,30.20,7.0,SE,15.0,-,0.05,Rain,Light Rain,130,2013-02-01 14:30:00
5:53 AM,43.0,42.1,97,30.21,7.0,SE,16.1,-,0.08,Rain,Light Rain,130,2013-02-01 14:53:00
6:05 AM,44.6,42.8,93,30.20,7.0,SE,15.0,-,0.02,Rain,Rain,140,2013-02-01 15:05:00
6:53 AM,43.0,42.1,97,30.21,10.0,SE,16.1,-,0.07,Rain,Light Rain,130,2013-02-01 15:53:00
7:06 AM,42.8,42.8,100,30.20,9.0,SE,16.1,24.2,0.01,Rain,Light Rain,140,2013-02-01 16:06:00
7:53 AM,42.8,42.8,100,30.21,6.0,SE,16.1,23.0,N/A,Rain,Light Rain,140,2013-02-01 16:53:00
8:53 AM,43.0,41.0,93,30.22,8.0,SE,16.1,-,0.02,Rain,Light Rain,140,2013-02-01 17:53:00
9:53 AM,43.0,41.0,93,30.23,10.0,SSE,8.1,-,0.04,Rain,Light Rain,150,2013-02-01 18:53:00
10:53 AM,43.0,41.0,93,30.24,8.0,SE,11.5,-,0.05,Rain,Light Rain,140,2013-02-01 19:53:00
11:53 AM,43.0,42.1,97,30.23,3.0,SE,13.8,20.7,0.06,Rain,Light Rain,140,2013-02-01 20:53:00
12:08 PM,42.8,42.8,100,30.23,2.0,SE,17.3,-,0.01,Rain,Light Rain,140,2013-02-01 21:08:00
12:53 PM,44.1,42.1,93,30.22,2.0,SE,17.3,-,0.06,Rain,Light Rain,140,2013-02-01 21:53:00
1:53 PM,44.1,42.1,93,30.22,1.5,SE,13.8,-,0.10,Rain,Rain,140,2013-02-01 22:53:00
2:53 PM,44.1,42.1,93,30.22,3.0,SE,15.0,20.7,0.13,Rain,Light Rain,140,2013-02-01 23:53:00
3:38 PM,44.6,42.8,93,30.20,2.0,SE,10.4,20.7,0.05,Rain,Light Rain,140,2013-02-02 00:38:00
3:53 PM,44.1,42.1,93,30.20,4.0,SE,15.0,23.0,0.08,Rain,Light Rain,140,2013-02-02 00:53:00
4:53 PM,44.1,42.1,93,30.19,10.0,SE,12.7,-,0.01,,Overcast,140,2013-02-02 01:53:00
5:53 PM,44.1,42.1,93,30.20,8.0,SSE,12.7,-,0.06,Rain,Light Rain,150,2013-02-02 02:53:00
5:54 PM,44.6,42.8,93,30.20,8.0,SSE,12.7,-,0.00,Rain,Light Rain,150,2013-02-02 02:54:00
6:53 PM,44.1,42.1,93,30.20,6.0,SE,15.0,23.0,0.09,Rain,Rain,140,2013-02-02 03:53:00
7:53 PM,44.1,43.0,96,30.19,3.0,SSE,12.7,-,0.12,Rain,Light Rain,150,2013-02-02 04:53:00
8:53 PM,44.1,42.1,93,30.19,10.0,SE,12.7,-,0.07,Rain,Light Rain,140,2013-02-02 05:53:00
9:43 PM,44.6,42.8,93,30.19,10.0,SSE,16.1,25.3,0.07,Rain,Light Rain,150,2013-02-02 06:43:00
9:53 PM,44.1,42.1,93,30.19,10.0,SE,17.3,24.2,0.07,,Overcast,140,2013-02-02 06:53:00
10:05 PM,44.6,42.8,93,30.19,6.0,SSE,11.5,-,0.00,Rain,Light Rain,160,2013-02-02 07:05:00
10:53 PM,44.1,42.1,93,30.19,10.0,SSE,16.1,21.9,0.01,Rain,Light Rain,150,2013-02-02 07:53:00
11:25 PM,44.6,42.8,93,30.19,10.0,SE,16.1,24.2,0.00,Rain,Light Rain,140,2013-02-02 08:25:00
11:37 PM,44.6,42.8,93,30.18,10.0,SSE,9.2,23.0,0.00,,Overcast,150,2013-02-02 08:37:00
11:53 PM,44.1,42.1,93,30.19,10.0,SE,19.6,26.5,0.00,Rain,Light Rain,130,2013-02-02 08:53:00